World > North America > United States > Texas > Jourdanton  

Jourdanton, TX Hourly Weather Updates

Feedback E-mail the Weather

Quick Clicks

Jourdanton, TX Weather Maps

°F °C°F °C
Jourdanton Weather Map
UTC Time: 6/19/2024, 08:00
Your Time:

Jourdanton, TX Regional Weather

Expires:202406190900;;280223
ASUS44 KSJT 190800
RWRSJT
WEST CENTRAL TEXAS REGIONAL WEATHER ROUNDUP
NATIONAL WEATHER SERVICE SAN ANGELO TX
300 AM CDT WED JUN 19 2024

NOTE: "FAIR" INDICATES FEW OR NO CLOUDS BELOW 12,000 FEET WITH NO
SIGNIFICANT WEATHER AND/OR OBSTRUCTIONS TO VISIBILITY.


TXZ145-158-159-173-191-192-194-205-207-220-223-190900-
CENTRAL AND SOUTH CENTRAL TEXAS
  
CITY           SKY/WX    TMP DP  RH WIND       PRES   REMARKS
AUSTIN/BERGSTM PTCLDY    76  69  79 NE3       29.88F TC  24           
WACO           CLEAR     73  70  90 CALM      29.92S TC  23           
HILLSBORO      NOT AVBL                                               
TEMPLE         CLEAR     73  70  90 E3        29.93S TC  23           
KILLEEN-GRAY   CLEAR     75  69  84 SE5       29.92S TC  24           
FORT HOOD      CLEAR     75  69  81 NE5       29.92R TC  24           
GEORGETOWN     CLEAR     75  69  81 E5        29.93S TC  24           
LAGO VISTA     NOT AVBL                                               
SAN MARCOS     CLOUDY    74  72  93 NE5       29.90S TC  23           
NEW BRAUNFELS  MOCLDY    76  72  87 NE6       29.87F TC  24           
RANDOLPH AFB   CLOUDY    77  70  79 E5        29.85F TC  25           
SAN ANTONIO    CLOUDY    77  71  82 E10       29.89F TC  25           
STINSON        PTCLDY    77  71  82 E7        29.85F TC  25           
PLEASANTON     NOT AVBL                                               
LA GRANGE      PTCLDY    75  74  98 CALM      29.85F TC  24           
GIDDINGS       NOT AVBL                                               
$$


SKY/WX - Weather  TMP - Temperature  DP - Dew Point  RH - Humidity
WIND - Wind Direction/Speed PRES - Barometric Pressure VSB - Visibility
WCI - Wind Chill Index E13G22 Wind - East Wind 13 mph/Gusts of 22 mph

Trending Headlines

Trending Entertainment Headlines

Jourdanton Radar Loop

Use the map search tool if you want to place a location marker on the radar map...

Jourdanton Quick Facts

National Two Day Weather Forecast


E-mail the Jourdanton Weather Forecast

Voice your opinion or tell us about page issues...